Location: ???? ????????
(44.2382°N, 135.4003°E)
Time: 00:31:35
(UTC+00:00)

Cosmos 1953 - Pass Details

Date: 19 May 2025
Orbit: 485 x 502 km, 82.5° (Epoch: 16 June)

Event Time Altitude Azimuth Distance (km) Brightness Sun altitude
Rises 17:38:17 0° 336° (NNW) 2,567 6.1 -15.8°
Reaches altitude 10° 17:40:49 10° 318° (NW) 1,682 4.9 -15.5°
Maximum altitude 17:43:28 19° 272° (W) 1,216 3.7 -15.2°
Enters shadow 17:43:37 19° 268° (W) 1,218 3.7 -15.1°
